Time,TemperatureF,DewpointF,PressureIn,WindDirection,WindDirectionDegrees,WindSpeedMPH,WindSpeedGustMPH,Humidity,HourlyPrecipIn,Conditions,Clouds,dailyrainin,SoftwareType,DateUTC
2013-04-29 00:12:00,53.2,41.7,29.95,SE,135,2.7,-999.0,65,-99.99,,,0.00,Acu-Link.com,2013-04-29 04:12:00,
2013-04-29 00:27:00,53.4,41.1,29.94,ESE,112,3.2,-999.0,63,-99.99,,,0.00,Acu-Link.com,2013-04-29 04:27:00,
2013-04-29 00:43:00,53.2,41.7,29.94,ESE,112,2.7,-999.0,65,-99.99,,,0.00,Acu-Link.com,2013-04-29 04:43:00,
2013-04-29 00:58:00,52.7,42.1,29.94,ESE,112,2.7,-999.0,67,-99.99,,,0.00,Acu-Link.com,2013-04-29 04:58:00,
2013-04-29 01:13:00,52.7,41.7,29.94,SE,135,2.7,-999.0,66,-99.99,,,0.00,Acu-Link.com,2013-04-29 05:13:00,
2013-04-29 01:28:00,53.1,40.8,29.93,ESE,112,5.3,-999.0,63,-99.99,,,0.00,Acu-Link.com,2013-04-29 05:28:00,
2013-04-29 01:43:00,53.6,39.2,29.93,ESE,112,3.2,-999.0,58,-99.99,,,0.00,Acu-Link.com,2013-04-29 05:43:00,
2013-04-29 01:58:00,53.6,39.6,29.93,ESE,112,4.2,-999.0,59,-99.99,,,0.00,Acu-Link.com,2013-04-29 05:58:00,
2013-04-29 02:13:00,53.6,40.1,29.92,ESE,112,1.7,-999.0,60,-99.99,,,0.00,Acu-Link.com,2013-04-29 06:13:00,
2013-04-29 02:28:00,53.4,39.9,29.92,ESE,112,4.7,-999.0,60,-99.99,,,0.00,Acu-Link.com,2013-04-29 06:28:00,
2013-04-29 02:43:00,53.6,40.1,29.91,ESE,112,3.7,-999.0,60,-99.99,,,0.00,Acu-Link.com,2013-04-29 06:43:00,
2013-04-29 02:59:00,53.6,39.6,29.92,ESE,112,3.7,-999.0,59,-99.99,,,0.00,Acu-Link.com,2013-04-29 06:59:00,
2013-04-29 03:14:00,53.6,39.6,29.91,ESE,112,5.8,-999.0,59,-99.99,,,0.00,Acu-Link.com,2013-04-29 07:14:00,
2013-04-29 03:29:00,53.2,39.2,29.91,SSE,157,2.2,-999.0,59,-99.99,,,0.00,Acu-Link.com,2013-04-29 07:29:00,
2013-04-29 03:44:00,52.9,40.7,29.91,ESE,112,1.7,-999.0,63,-99.99,,,0.00,Acu-Link.com,2013-04-29 07:44:00,
2013-04-29 03:59:00,52.9,40.7,29.91,SSE,157,3.7,-999.0,63,-99.99,,,0.00,Acu-Link.com,2013-04-29 07:59:00,
2013-04-29 04:14:00,52.9,40.2,29.91,SE,135,2.7,-999.0,62,-99.99,,,0.00,Acu-Link.com,2013-04-29 08:14:00,
2013-04-29 04:29:00,52.7,40.5,29.91,SE,135,3.2,-999.0,63,-99.99,,,0.00,Acu-Link.com,2013-04-29 08:29:00,
2013-04-29 04:45:00,51.6,41.8,29.91,SSE,157,1.7,-999.0,69,-99.99,,,0.00,Acu-Link.com,2013-04-29 08:45:00,
2013-04-29 05:00:00,51.3,41.5,29.91,ESE,112,2.2,-999.0,69,-99.99,,,0.00,Acu-Link.com,2013-04-29 09:00:00,
2013-04-29 05:15:00,51.3,42.9,29.91,South,180,0.0,-999.0,73,-99.99,,,0.00,Acu-Link.com,2013-04-29 09:15:00,
2013-04-29 05:30:00,50.5,43.2,29.91,East,90,0.0,-999.0,76,-99.99,,,0.00,Acu-Link.com,2013-04-29 09:30:00,
2013-04-29 05:45:00,51.4,40.8,29.92,East,90,1.1,-999.0,67,-99.99,,,0.00,Acu-Link.com,2013-04-29 09:45:00,
2013-04-29 06:00:00,51.8,40.0,29.92,ESE,112,2.2,-999.0,64,-99.99,,,0.00,Acu-Link.com,2013-04-29 10:00:00,
2013-04-29 06:15:00,51.8,40.4,29.92,SSE,157,2.2,-999.0,65,-99.99,,,0.00,Acu-Link.com,2013-04-29 10:15:00,
2013-04-29 06:30:00,52.0,41.0,29.92,SE,135,0.0,-999.0,66,-99.99,,,0.00,Acu-Link.com,2013-04-29 10:30:00,
2013-04-29 06:46:00,52.3,38.8,29.93,South,180,2.2,-999.0,60,-99.99,,,0.00,Acu-Link.com,2013-04-29 10:46:00,
2013-04-29 07:01:00,52.2,39.6,29.93,SSE,157,0.0,-999.0,62,-99.99,,,0.00,Acu-Link.com,2013-04-29 11:01:00,
2013-04-29 07:16:00,52.2,40.4,29.93,SSE,157,1.1,-999.0,64,-99.99,,,0.00,Acu-Link.com,2013-04-29 11:16:00,
2013-04-29 07:31:00,52.5,40.3,29.93,ESE,112,2.2,-999.0,63,-99.99,,,0.00,Acu-Link.com,2013-04-29 11:31:00,
2013-04-29 07:46:00,52.7,41.7,29.93,SE,135,4.2,-999.0,66,-99.99,,,0.00,Acu-Link.com,2013-04-29 11:46:00,
2013-04-29 08:01:00,52.9,42.2,29.94,South,180,3.2,-999.0,67,-99.99,,,0.00,Acu-Link.com,2013-04-29 12:01:00,
2013-04-29 08:16:00,52.9,42.6,29.94,SSE,157,3.7,-999.0,68,-99.99,,,0.00,Acu-Link.com,2013-04-29 12:16:00,
2013-04-29 08:31:00,52.9,43.0,29.94,SE,135,2.7,-999.0,69,-99.99,,,0.00,Acu-Link.com,2013-04-29 12:31:00,
2013-04-29 08:46:00,52.9,43.8,29.94,SE,135,0.0,-999.0,71,-99.99,,,0.00,Acu-Link.com,2013-04-29 12:46:00,
2013-04-29 09:01:00,52.9,44.1,29.94,ESE,112,2.7,-999.0,72,-99.99,,,0.00,Acu-Link.com,2013-04-29 13:01:00,
2013-04-29 09:17:00,53.1,44.3,29.94,SSE,157,0.0,-999.0,72,-99.99,,,0.00,Acu-Link.com,2013-04-29 13:17:00,
2013-04-29 09:32:00,53.1,44.3,29.94,SSE,157,2.2,-999.0,72,-99.99,,,0.00,Acu-Link.com,2013-04-29 13:32:00,
2013-04-29 09:47:00,53.1,45.0,29.94,SSE,157,0.0,-999.0,74,-99.99,,,0.00,Acu-Link.com,2013-04-29 13:47:00,
2013-04-29 10:02:00,53.1,45.0,29.94,ESE,112,0.0,-999.0,74,-99.99,,,0.00,Acu-Link.com,2013-04-29 14:02:00,
2013-04-29 10:17:00,53.1,45.7,29.94,SSE,157,0.0,-999.0,76,-99.99,,,0.00,Acu-Link.com,2013-04-29 14:17:00,
2013-04-29 10:32:00,53.1,45.4,29.94,ESE,112,2.7,-999.0,75,-99.99,,,0.00,Acu-Link.com,2013-04-29 14:32:00,
2013-04-29 10:47:00,53.2,45.8,29.94,East,90,2.7,-999.0,76,-99.99,,,0.00,Acu-Link.com,2013-04-29 14:47:00,
2013-04-29 11:02:00,53.2,46.2,29.94,SSE,157,2.2,-999.0,77,-99.99,,,0.00,Acu-Link.com,2013-04-29 15:02:00,
2013-04-29 11:17:00,53.2,46.2,29.94,ESE,112,0.0,-999.0,77,-99.99,,,0.00,Acu-Link.com,2013-04-29 15:17:00,
2013-04-29 11:33:00,53.2,46.2,29.94,ESE,112,2.2,-999.0,77,-99.99,,,0.00,Acu-Link.com,2013-04-29 15:33:00,
2013-04-29 11:48:00,53.2,46.9,29.95,ESE,112,1.7,-999.0,79,-99.99,,,0.00,Acu-Link.com,2013-04-29 15:48:00,
2013-04-29 12:03:00,52.9,46.9,29.95,ESE,112,2.7,-999.0,80,-99.99,,,0.00,Acu-Link.com,2013-04-29 16:03:00,
2013-04-29 12:18:00,52.7,47.0,29.94,SE,135,2.7,-999.0,81,-99.99,,,0.00,Acu-Link.com,2013-04-29 16:18:00,
2013-04-29 12:33:00,52.5,47.5,29.94,SE,135,0.0,-999.0,83,-99.99,,,0.00,Acu-Link.com,2013-04-29 16:33:00,
2013-04-29 12:48:00,52.3,47.6,29.94,WSW,247,1.7,-999.0,84,-99.99,,,0.00,Acu-Link.com,2013-04-29 16:48:00,
2013-04-29 13:03:00,52.5,47.8,29.94,SE,135,0.0,-999.0,84,-99.99,,,0.00,Acu-Link.com,2013-04-29 17:03:00,
2013-04-29 13:18:00,53.1,48.4,29.93,ESE,112,1.7,-999.0,84,-99.99,,,0.00,Acu-Link.com,2013-04-29 17:18:00,
2013-04-29 13:33:00,53.6,48.6,29.93,ESE,112,0.0,-999.0,83,-99.99,,,0.00,Acu-Link.com,2013-04-29 17:33:00,
2013-04-29 13:49:00,54.0,48.6,29.93,ESE,112,2.7,-999.0,82,-99.99,,,0.00,Acu-Link.com,2013-04-29 17:49:00,
2013-04-29 14:04:00,53.6,48.2,29.93,South,180,0.0,-999.0,82,-99.99,,,0.00,Acu-Link.com,2013-04-29 18:04:00,
2013-04-29 14:19:00,53.6,48.6,29.93,SE,135,2.7,-999.0,83,-99.99,,,0.00,Acu-Link.com,2013-04-29 18:19:00,
2013-04-29 14:34:00,54.0,49.0,29.93,ESE,112,2.2,-999.0,83,-99.99,,,0.00,Acu-Link.com,2013-04-29 18:34:00,
2013-04-29 14:49:00,54.7,49.6,29.92,South,180,2.2,-999.0,83,-99.99,,,0.00,Acu-Link.com,2013-04-29 18:49:00,
2013-04-29 15:04:00,55.2,50.1,29.92,South,180,3.2,-999.0,83,-99.99,,,0.00,Acu-Link.com,2013-04-29 19:04:00,
2013-04-29 15:19:00,55.9,49.8,29.92,East,90,0.0,-999.0,80,-99.99,,,0.00,Acu-Link.com,2013-04-29 19:19:00,
2013-04-29 15:34:00,56.8,50.0,29.91,ENE,67,2.2,-999.0,78,-99.99,,,0.00,Acu-Link.com,2013-04-29 19:34:00,
2013-04-29 15:49:00,57.0,49.9,29.91,SE,135,0.0,-999.0,77,-99.99,,,0.00,Acu-Link.com,2013-04-29 19:49:00,
2013-04-29 16:05:00,56.7,50.3,29.90,South,180,3.2,-999.0,79,-99.99,,,0.00,Acu-Link.com,2013-04-29 20:05:00,
2013-04-29 16:20:00,56.8,50.0,29.89,East,90,1.7,-999.0,78,-99.99,,,0.00,Acu-Link.com,2013-04-29 20:20:00,
2013-04-29 16:35:00,57.2,50.1,29.89,East,90,0.0,-999.0,77,-99.99,,,0.00,Acu-Link.com,2013-04-29 20:35:00,
2013-04-29 16:50:00,56.5,50.1,29.90,SSE,157,0.0,-999.0,79,-99.99,,,0.00,Acu-Link.com,2013-04-29 20:50:00,
2013-04-29 17:05:00,56.8,50.0,29.89,WSW,247,0.0,-999.0,78,-99.99,,,0.00,Acu-Link.com,2013-04-29 21:05:00,
2013-04-29 17:20:00,56.5,50.1,29.89,SSE,157,1.1,-999.0,79,-99.99,,,0.00,Acu-Link.com,2013-04-29 21:20:00,
2013-04-29 17:35:00,56.5,50.4,29.90,South,180,0.0,-999.0,80,-99.99,,,0.00,Acu-Link.com,2013-04-29 21:35:00,
2013-04-29 17:50:00,56.7,50.6,29.90,SSE,157,1.1,-999.0,80,-99.99,,,0.00,Acu-Link.com,2013-04-29 21:50:00,
2013-04-29 18:05:00,56.5,50.7,29.90,SSE,157,1.7,-999.0,81,-99.99,,,0.00,Acu-Link.com,2013-04-29 22:05:00,
2013-04-29 18:21:00,56.3,50.9,29.90,SSE,157,1.7,-999.0,82,-99.99,,,0.00,Acu-Link.com,2013-04-29 22:21:00,
2013-04-29 18:36:00,56.1,51.0,29.90,SSE,157,2.2,-999.0,83,-99.99,,,0.00,Acu-Link.com,2013-04-29 22:36:00,
2013-04-29 18:51:00,56.1,51.0,29.90,East,90,2.7,-999.0,83,-99.99,,,0.00,Acu-Link.com,2013-04-29 22:51:00,
2013-04-29 19:06:00,55.9,50.8,29.90,SSE,157,1.1,-999.0,83,-99.99,,,0.00,Acu-Link.com,2013-04-29 23:06:00,
2013-04-29 19:21:00,55.8,50.7,29.90,South,180,0.0,-999.0,83,-99.99,,,0.00,Acu-Link.com,2013-04-29 23:21:00,
2013-04-29 19:36:00,55.6,50.8,29.90,SE,135,2.2,-999.0,84,-99.99,,,0.00,Acu-Link.com,2013-04-29 23:36:00,
2013-04-29 19:51:00,55.4,51.3,29.90,SW,225,1.1,-999.0,86,-99.99,,,0.00,Acu-Link.com,2013-04-29 23:51:00,
2013-04-29 20:06:00,55.0,50.9,29.90,South,180,0.0,-999.0,86,-99.99,,,0.00,Acu-Link.com,2013-04-30 00:06:00,
2013-04-29 20:21:00,54.9,51.1,29.91,South,180,0.0,-999.0,87,-99.99,,,0.00,Acu-Link.com,2013-04-30 00:21:00,
2013-04-29 20:37:00,54.9,51.4,29.91,South,180,0.0,-999.0,88,-99.99,,,0.00,Acu-Link.com,2013-04-30 00:37:00,
2013-04-29 20:52:00,54.7,51.2,29.91,ESE,112,0.0,-999.0,88,-99.99,,,0.00,Acu-Link.com,2013-04-30 00:52:00,
2013-04-29 21:07:00,54.7,51.2,29.92,SSE,157,1.7,-999.0,88,-99.99,,,0.00,Acu-Link.com,2013-04-30 01:07:00,
2013-04-29 21:22:00,54.7,51.5,29.92,SE,135,2.2,-999.0,89,-99.99,,,0.00,Acu-Link.com,2013-04-30 01:22:00,
2013-04-29 21:37:00,54.7,51.5,29.93,West,270,2.2,-999.0,89,-99.99,,,0.00,Acu-Link.com,2013-04-30 01:37:00,
2013-04-29 21:52:00,54.7,51.5,29.93,South,180,0.0,-999.0,89,-99.99,,,0.00,Acu-Link.com,2013-04-30 01:52:00,
2013-04-29 22:07:00,54.5,51.3,29.93,WSW,247,2.7,-999.0,89,-99.99,,,0.00,Acu-Link.com,2013-04-30 02:07:00,
2013-04-29 22:22:00,54.7,51.5,29.93,SSE,157,2.2,-999.0,89,-99.99,,,0.00,Acu-Link.com,2013-04-30 02:22:00,
2013-04-29 22:37:00,54.9,51.7,29.94,SSE,157,1.7,-999.0,89,-99.99,,,0.00,Acu-Link.com,2013-04-30 02:37:00,
2013-04-29 22:52:00,55.0,51.5,29.94,ESE,112,3.7,-999.0,88,-99.99,,,0.00,Acu-Link.com,2013-04-30 02:52:00,
2013-04-29 23:08:00,55.4,51.3,29.94,East,90,3.2,-999.0,86,-99.99,,,0.00,Acu-Link.com,2013-04-30 03:08:00,
2013-04-29 23:23:00,55.8,51.4,29.95,ESE,112,1.7,-999.0,85,-99.99,,,0.00,Acu-Link.com,2013-04-30 03:23:00,
2013-04-29 23:38:00,55.8,51.0,29.95,NNE,22,3.7,-999.0,84,-99.99,,,0.00,Acu-Link.com,2013-04-30 03:38:00,
2013-04-29 23:53:00,55.9,50.8,29.95,SSE,157,2.7,-999.0,83,-99.99,,,0.00,Acu-Link.com,2013-04-30 03:53:00,